Weather History for Evansville, IN

Change the Weather History Date:

Saturday, February 2, 2013

  Actual Average Record
Temperature  
Mean Temperature 33 °F 34 °F  
Max Temperature 41 °F 43 °F 63 °F (1911)
Min Temperature 25 °F 25 °F -23 °F (1951)
Degree Days  
Heating Degree Days 32 31  
Month to date heating degree days 79 63  
Since 1 July heating degree days 2644 2842  
Cooling Degree Days 0 0  
Month to date cooling degree days 0 0  
Year to date cooling degree days 0 0  
Moisture  
Dew Point 20 °F    
Average Humidity 64    
Maximum Humidity 78    
Minimum Humidity 50    
Precipitation  
Precipitation T in 0.12 in 1.73 in (1989)
Month to date precipitation T 0.24  
Year to date precipitation 6.77 3.34  
Snow  
Snow 0.00 in 0.20 in 2.70 in (1961)
Month to date snowfall T 0.3  
Since 1 July snowfall 11.0 7.2  
Snow Depth 0.00 in    
Sea Level Pressure  
Sea Level Pressure 30.17 in    
Wind  
Wind Speed 8 mph (SW)    
Max Wind Speed 16 mph    
Max Gust Speed 20 mph    
Visibility 10 miles    
Events Snow    
T = Trace of Precipitation, MM = Missing Value Source: NWS Daily Summary

Daily Weather History Graph

Daily Weather History Graph

Search for Another Location

Airport:

Trip Planner

Search our weather history database for the weather conditions in past years. The results will help you decide how hot, cold, wet, or windy it might be!

Date:

Astronomy

Feb. 02, 2013 Rise Set
Actual Time 6:53 AM CST 5:14 PM CST
Civil Twilight 6:25 AM CST 5:42 PM CST
Nautical Twilight 5:54 AM CST 6:13 PM CST
Astronomical Twilight 5:23 AM CST 6:44 PM CST
Moon No Moon Rise 10:11 AM CST (2/2)
Length of Visible Light 11h 16m
Length of Day
10h 21m
Waning Gibbous, 59% of the Moon is Illuminated
Feb 2
Waning Gibbous
Feb 3
Last Quarter
Feb 10
New
Feb 17
First Quarter
Feb 25
Full

Hourly Weather History & Observations

Time (CST) Temp. Windchill Dew Point Humidity Pressure Visibility Wind Dir Wind Speed Gust Speed Precip Events Conditions
12:54 AM 25.0 °F 14.2 °F 15.1 °F 66% 30.33 in 5.0 mi SSW 11.5 mph - 0.00 in Snow Light Snow
1:09 AM 24.8 °F 16.1 °F 15.8 °F 69% 30.31 in 5.0 mi WSW 8.1 mph - 0.00 in Snow Light Snow
1:42 AM 26.6 °F 21.2 °F 17.6 °F 69% 30.29 in 9.0 mi SSW 4.6 mph - 0.00 in Snow Light Snow
1:54 AM 26.1 °F 18.4 °F 16.0 °F 66% 30.31 in 10.0 mi South 6.9 mph - 0.00 in   Overcast
2:54 AM 27.0 °F 19.5 °F 16.0 °F 63% 30.29 in 10.0 mi South 6.9 mph - N/A   Overcast
3:54 AM 27.0 °F 18.0 °F 16.0 °F 63% 30.25 in 10.0 mi South 9.2 mph - N/A   Overcast
4:54 AM 27.0 °F 17.3 °F 16.0 °F 63% 30.25 in 10.0 mi South 10.4 mph - N/A   Overcast
5:54 AM 27.0 °F 18.0 °F 16.0 °F 63% 30.23 in 10.0 mi South 9.2 mph - N/A   Overcast
6:54 AM 28.0 °F 19.3 °F 16.0 °F 61% 30.20 in 10.0 mi South 9.2 mph - N/A   Overcast
7:54 AM 28.9 °F 20.4 °F 17.1 °F 61% 30.18 in 10.0 mi South 9.2 mph - N/A   Mostly Cloudy
8:54 AM 30.9 °F 21.7 °F 18.0 °F 59% 30.17 in 10.0 mi SSW 11.5 mph - N/A   Overcast
9:54 AM 32.0 °F 22.5 °F 19.0 °F 59% 30.15 in 10.0 mi SSW 12.7 mph - N/A   Overcast
10:54 AM 34.0 °F 27.2 °F 19.9 °F 56% 30.14 in 10.0 mi SW 8.1 mph - N/A   Overcast
11:54 AM 36.0 °F 29.0 °F 19.9 °F 52% 30.11 in 10.0 mi WSW 9.2 mph - N/A   Overcast
12:54 PM 37.9 °F 30.5 °F 21.0 °F 51% 30.07 in 10.0 mi WSW 11.5 mph - N/A   Mostly Cloudy
1:54 PM 37.9 °F 29.6 °F 21.9 °F 53% 30.07 in 10.0 mi West 13.8 mph - N/A   Overcast
2:54 PM 39.9 °F 33.9 °F 25.0 °F 55% 30.07 in 10.0 mi West 9.2 mph - N/A   Overcast
3:54 PM 39.0 °F 32.3 °F 23.0 °F 53% 30.08 in 10.0 mi WNW 10.4 mph - N/A   Scattered Clouds
4:54 PM 37.9 °F 31.5 °F 23.0 °F 55% 30.09 in 10.0 mi NW 9.2 mph - N/A   Scattered Clouds
5:54 PM 35.1 °F 31.0 °F 23.0 °F 61% 30.09 in 10.0 mi WNW 4.6 mph - N/A   Scattered Clouds
6:54 PM 30.9 °F 27.5 °F 21.9 °F 69% 30.12 in 10.0 mi SW 3.5 mph - N/A   Clear
7:54 PM 32.0 °F - 23.0 °F 69% 30.12 in 10.0 mi Calm Calm - N/A   Mostly Cloudy
8:54 PM 33.1 °F 24.9 °F 24.1 °F 70% 30.13 in 10.0 mi NNW 10.4 mph - N/A   Mostly Cloudy
9:54 PM 30.9 °F 26.2 °F 24.1 °F 76% 30.14 in 10.0 mi NW 4.6 mph - N/A   Mostly Cloudy
10:54 PM 28.9 °F 22.8 °F 21.9 °F 75% 30.13 in 10.0 mi NW 5.8 mph - N/A   Partly Cloudy
11:54 PM 30.0 °F - 23.0 °F 75% 30.11 in 10.0 mi Calm Calm - N/A   Overcast